Ignacio, CO

3:50 AM MDT on September 27, 2016 (GMT -0600)
Durango-La Plata County

Weather History for KDRO - April, 2013

Change the Weather History Date:

Wednesday, April 10, 2013

  Actual Average Record
Temperature  
Mean Temperature 31 °F 44 °F  
Max Temperature 37 °F 59 °F 76 °F (1972)
Min Temperature 24 °F 28 °F 15 °F (1999)
Degree Days  
Heating Degree Days 34 22  
Month to date heating degree days 212 225  
Since 1 July heating degree days 6351 6254  
Cooling Degree Days 0 0  
Month to date cooling degree days 0 0  
Year to date cooling degree days 0 0  
Moisture  
Dew Point 24 °F    
Average Humidity 78    
Maximum Humidity 92    
Minimum Humidity 64    
Precipitation  
Precipitation 0.00 in 0.05 in 0.49 in (1979)
Month to date precipitation 0.67 0.38  
Year to date precipitation 3.28 3.91  
Sea Level Pressure  
Sea Level Pressure 29.94 in    
Wind  
Wind Speed 4 mph (SSW)    
Max Wind Speed 10 mph    
Max Gust Speed 13 mph    
Visibility 10 miles    
Events      
T = Trace of Precipitation, MM = Missing Value Source: NWS Daily Summary

Daily Weather History Graph

Daily Weather History Graph

Search for Another Location

Airport or City:

Trip Planner

Search our weather history database for the weather conditions in past years. The results will help you decide how hot, cold, wet, or windy it might be!

Date:

Astronomy

Apr. 10, 2013 Rise Set
Actual Time 6:43 AM MDT 7:41 PM MDT
Civil Twilight 6:16 AM MDT 8:08 PM MDT
Nautical Twilight 5:45 AM MDT 8:40 PM MDT
Astronomical Twilight 5:12 AM MDT 9:12 PM MDT
Moon 6:41 AM MDT (4/10) 8:19 PM MDT (4/10)
Length of Visible Light 13h 51m
Length of Day
12h 58m
New Moon, 0% of the Moon is Illuminated
Apr 10
New Moon
Apr 18
First Quarter
Apr 25
Full
May 2
Last Quarter
May 9
New

Hourly Weather History & Observations

Time (MDT) Temp. Windchill Dew Point Humidity Pressure Visibility Wind Dir Wind Speed Gust Speed Precip Events Conditions
12:37 AM 28.4 °F 23.3 °F 26.6 °F 93% 29.83 in 10.0 mi WSW 4.6 mph - N/A   Mostly Cloudy
12:53 AM 28.9 °F 23.9 °F 26.1 °F 89% 29.89 in 10.0 mi SSW 4.6 mph - N/A   Overcast
1:44 AM 28.4 °F - 24.8 °F 86% 29.83 in 10.0 mi Calm Calm - N/A   Scattered Clouds
1:53 AM 28.0 °F 24.2 °F 24.1 °F 85% 29.89 in 10.0 mi SW 3.5 mph - N/A   Partly Cloudy
2:13 AM 26.6 °F 22.6 °F 24.8 °F 93% 29.84 in 10.0 mi West 3.5 mph - N/A   Mostly Cloudy
2:20 AM 28.4 °F 23.3 °F 24.8 °F 86% 29.83 in 10.0 mi WSW 4.6 mph - N/A   Mostly Cloudy
2:53 AM 28.0 °F 22.8 °F 24.1 °F 85% 29.88 in 10.0 mi WSW 4.6 mph - N/A   Overcast
3:53 AM 28.0 °F 24.2 °F 25.0 °F 88% 29.89 in 10.0 mi SSW 3.5 mph - N/A   Overcast
4:00 AM 28.4 °F 24.6 °F 24.8 °F 86% 29.84 in 10.0 mi South 3.5 mph - N/A   Overcast
4:16 AM 28.4 °F 22.2 °F 24.8 °F 86% 29.84 in 10.0 mi South 5.8 mph - N/A   Overcast
4:53 AM 27.0 °F - 23.0 °F 85% 29.90 in 10.0 mi Calm Calm - N/A   Overcast
5:15 AM 26.6 °F 22.6 °F 21.2 °F 80% 29.85 in 10.0 mi West 3.5 mph - N/A   Overcast
5:53 AM 26.1 °F 20.5 °F 21.9 °F 84% 29.91 in 10.0 mi SW 4.6 mph - N/A   Overcast
6:46 AM 26.6 °F 22.6 °F 21.2 °F 80% 29.88 in 10.0 mi WSW 3.5 mph - N/A   Overcast
6:53 AM 25.0 °F 18.1 °F 21.0 °F 85% 29.94 in 10.0 mi WSW 5.8 mph - N/A   Overcast
7:45 AM 24.8 °F - 21.2 °F 86% 29.89 in 10.0 mi Calm Calm - N/A   Overcast
7:53 AM 26.1 °F 21.9 °F 21.9 °F 84% 29.97 in 10.0 mi SSE 3.5 mph - N/A   Overcast
8:06 AM 24.8 °F 19.1 °F 21.2 °F 86% 29.90 in 10.0 mi South 4.6 mph - N/A   Overcast
8:53 AM 24.1 °F 16.0 °F 19.9 °F 84% 30.01 in 10.0 mi SW 6.9 mph - N/A   Overcast
9:37 AM 24.8 °F 16.9 °F 19.4 °F 80% 29.94 in 10.0 mi SSW 6.9 mph - N/A   Overcast
9:53 AM 25.0 °F 16.3 °F 19.9 °F 81% 30.02 in 10.0 mi SSW 8.1 mph - N/A   Overcast
10:53 AM 26.1 °F 21.9 °F 21.0 °F 81% 30.03 in 10.0 mi SSW 3.5 mph - N/A   Overcast
11:53 AM 28.0 °F - 21.0 °F 75% 30.03 in 10.0 mi Calm Calm - N/A   Overcast
12:53 PM 30.0 °F - 21.0 °F 69% 30.01 in 10.0 mi Calm Calm - N/A   Overcast
1:53 PM 30.9 °F - 23.0 °F 72% 30.01 in 10.0 mi Calm Calm - N/A   Overcast
2:53 PM 34.0 °F - 25.0 °F 70% 29.99 in 10.0 mi Calm Calm - N/A   Overcast
3:53 PM 34.0 °F 27.2 °F 26.1 °F 73% 29.97 in 10.0 mi East 8.1 mph - N/A   Overcast
4:53 PM 36.0 °F 29.6 °F 26.1 °F 67% 29.94 in 10.0 mi ESE 8.1 mph - N/A   Overcast
5:53 PM 37.0 °F 32.4 °F 27.0 °F 67% 29.95 in 10.0 mi Variable 5.8 mph - N/A   Scattered Clouds
6:53 PM 36.0 °F 32.1 °F 26.1 °F 67% 29.97 in 10.0 mi East 4.6 mph - N/A   Overcast
7:53 PM 34.0 °F 28.8 °F 27.0 °F 75% 29.99 in 10.0 mi East 5.8 mph - N/A   Mostly Cloudy
8:53 PM 32.0 °F 27.5 °F 28.0 °F 85% 30.02 in 10.0 mi NE 4.6 mph - N/A   Mostly Cloudy
9:53 PM 32.0 °F 26.4 °F 27.0 °F 82% 30.04 in 10.0 mi North 5.8 mph - N/A   Clear
10:53 PM 30.0 °F - 26.1 °F 85% 30.05 in 10.0 mi Calm Calm - N/A   Clear
11:53 PM 30.0 °F 24.1 °F 26.1 °F 85% 30.04 in 10.0 mi WSW 5.8 mph - N/A   Clear